Find Starlink 5901

NORAD ID: 55999 Int'l Des: 2023-042 Owner: SPXS Country: US Constellation: starlink operational
LEOCIRCULAR

Live-Position

3D-Globus wird geladen...

Über Starlink 5901

Beschreibung wird geladen...

Nächste Überflüge

Passes for default location (London). Set your location on the main map for personalized predictions.

Höhenverlauf

Loading altitude history...

Zweizeiliger Elementsatz

1 55999U 23042P 26121.48539856 -.00007649 00000-0 -27603-3 0 9997
2 55999 43.0010 121.4559 0001143 285.1365 74.9360 15.26708924170947
Epoch: 1. Mai 2026 • Age: 5 hours

Aktueller Status

Höhe 489.5 km
Geschwindigkeit 7.63 km/s
Subsatellitenpunkt 42.87°N, 107.14°E
Startdatum 24. März 2023
Alter 3.1 years
Typ internet

Technische Details

Klassifizierung Payload
Masse 305.00 kg
Trockenmasse 290.00 kg
Gesamtmasse 305.00 kg
Länge 0.20 m
Durchmesser 2.80 m
Spannweite 9.00 m
Form Box + pan
Hersteller SPXS
Bus-Typ Starlink
Phasenstatus In Orbit
Besitzer/Staat SPXS/US

Most Searched